Walterboro, SC

4:13 AM EST on February 10, 2016 (GMT -0500)
Lowcountry Regional

Weather History for KRBW - September, 2014

Change the Weather History Date:

Monday, September 1, 2014

  Actual Average Record
Temperature  
Mean Temperature 84 °F -  
Max Temperature 96 °F 87 °F 96 °F (2014)
Min Temperature 73 °F 67 °F 64 °F (2010)
Cooling Degree Days 20    
Growing Degree Days 34 (Base 50)    
Moisture  
Dew Point 72 °F    
Average Humidity 64    
Maximum Humidity 100    
Minimum Humidity 32    
Precipitation  
Precipitation 0.00 in - - ()
Sea Level Pressure  
Sea Level Pressure 30.09 in    
Wind  
Wind Speed 2 mph (SE)    
Max Wind Speed 14 mph    
Max Gust Speed 21 mph    
Visibility 10 miles    
Events Rain , Thunderstorm    
Averages and records for this station are not official NWS values.
T = Trace of Precipitation, MM = Missing Value Source: NWS Daily Summary

Daily Weather History Graph

Daily Weather History Graph

Search for Another Location

Airport or City:

Trip Planner

Search our weather history database for the weather conditions in past years. The results will help you decide how hot, cold, wet, or windy it might be!

Date:

Astronomy

Sep. 01, 2014 Rise Set
Actual Time 6:57 AM EDT 7:47 PM EDT
Civil Twilight 6:31 AM EDT 8:12 PM EDT
Nautical Twilight 6:02 AM EDT 8:42 PM EDT
Astronomical Twilight 5:31 AM EDT 9:12 PM EDT
Moon 1:20 PM EDT (9/1) No Moon Set
Length of Visible Light 13h 40m
Length of Day
12h 50m
Waxing Crescent, 42% of the Moon is Illuminated
Sep 1
Waxing Crescent
Sep 2
First Quarter
Sep 8
Full
Sep 15
Last Quarter
Sep 24
New

Hourly Weather History & Observations

Time (EDT) Temp. Heat Index Dew Point Humidity Pressure Visibility Wind Dir Wind Speed Gust Speed Precip Events Conditions
12:15 AM 77.0 °F - - N/A% 30.12 in 10.0 mi Calm Calm - N/A   Clear
12:35 AM 77.0 °F - - N/A% 30.12 in 10.0 mi Calm Calm - N/A   Clear
1:15 AM 77.0 °F - - N/A% 30.11 in 10.0 mi SSE 5.8 mph - N/A   Clear
1:35 AM 78.8 °F - - N/A% 30.11 in 10.0 mi Calm Calm - N/A   Clear
2:15 AM 77.0 °F - - N/A% 30.10 in 10.0 mi Calm Calm - N/A   Clear
2:35 AM 77.0 °F - - N/A% 30.10 in 10.0 mi Calm Calm - N/A   Clear
2:55 AM 77.0 °F - - N/A% 30.09 in 10.0 mi Calm Calm - N/A   Clear
3:15 AM 77.0 °F - - N/A% 30.09 in 10.0 mi Calm Calm - N/A   Clear
3:35 AM 75.2 °F - - N/A% 30.08 in 10.0 mi Calm Calm - N/A   Clear
3:55 AM 75.2 °F - - N/A% 30.08 in 10.0 mi Calm Calm - N/A   Clear
4:15 AM 75.2 °F - - N/A% 30.08 in 10.0 mi Calm Calm - N/A   Clear
4:35 AM 75.2 °F - - N/A% 30.08 in 7.0 mi Calm Calm - N/A   Clear
4:55 AM 75.2 °F - - N/A% 30.08 in 10.0 mi Calm Calm - N/A   Clear
5:15 AM 73.4 °F - - N/A% 30.08 in 7.0 mi Calm Calm - N/A   Clear
5:35 AM 73.4 °F - - N/A% 30.09 in 10.0 mi Calm Calm - N/A   Clear
5:55 AM 73.4 °F - - N/A% 30.10 in 10.0 mi Calm Calm - N/A   Clear
6:15 AM 75.2 °F - - N/A% 30.10 in 10.0 mi West 3.5 mph - N/A   Scattered Clouds
6:35 AM 75.2 °F - - N/A% 30.11 in 10.0 mi Calm Calm - N/A   Scattered Clouds
7:15 AM 75.2 °F - - N/A% 30.12 in 5.0 mi Calm Calm - N/A   Haze
7:55 AM 77.0 °F - - N/A% 30.13 in 7.0 mi Calm Calm - N/A   Clear
8:35 AM 78.8 °F - - N/A% 30.14 in 10.0 mi NW 3.5 mph - N/A   Clear
9:15 AM 80.6 °F 88.1 °F 78.8 °F 94% 30.14 in 10.0 mi Calm Calm - N/A   Clear
9:35 AM 82.4 °F 90.9 °F 77.0 °F 84% 30.14 in 10.0 mi WNW 3.5 mph - N/A   Clear
9:55 AM 84.2 °F 94.1 °F 77.0 °F 79% 30.13 in 10.0 mi NNW 3.5 mph - N/A   Clear
10:15 AM 86.0 °F 96.9 °F 77.0 °F 74% 30.13 in 10.0 mi West 4.6 mph - N/A   Clear
10:35 AM 87.8 °F 95.6 °F 73.4 °F 62% 30.14 in 10.0 mi West 3.5 mph - N/A   Clear
10:55 AM 86.0 °F 91.8 °F 71.6 °F 62% 30.14 in 10.0 mi West 4.6 mph - N/A   Clear
11:15 AM 89.6 °F 94.7 °F 69.8 °F 52% 30.14 in 10.0 mi Calm Calm - N/A   Clear
11:35 AM 89.6 °F 93.4 °F 68.0 °F 49% 30.12 in 10.0 mi NNW 4.6 mph - N/A   Clear
12:15 PM 91.4 °F 93.2 °F 64.4 °F 41% 30.12 in 10.0 mi NE 3.5 mph - N/A   Clear
12:35 PM 89.6 °F 92.2 °F 66.2 °F 46% 30.12 in 10.0 mi Calm Calm - N/A   Clear
12:55 PM 91.4 °F 93.2 °F 64.4 °F 41% 30.11 in 10.0 mi North 4.6 mph - N/A   Clear
1:15 PM 91.4 °F 94.0 °F 66.2 °F 43% 30.10 in 10.0 mi NNE 5.8 mph - N/A   Clear
1:35 PM 91.4 °F 93.2 °F 64.4 °F 41% 30.10 in 10.0 mi West 3.5 mph - N/A   Clear
1:55 PM 95.0 °F 97.0 °F 64.4 °F 36% 30.09 in 10.0 mi NE 5.8 mph - N/A   Scattered Clouds
2:15 PM 95.0 °F 97.0 °F 64.4 °F 36% 30.08 in 10.0 mi Calm Calm - N/A   Scattered Clouds
2:35 PM 96.8 °F 99.0 °F 64.4 °F 34% 30.08 in 10.0 mi SE 8.1 mph - N/A   Mostly Cloudy
2:55 PM 93.2 °F 94.9 °F 64.4 °F 38% 30.07 in 10.0 mi East 3.5 mph - N/A   Overcast
3:15 PM 93.2 °F 94.9 °F 64.4 °F 38% 30.06 in 10.0 mi Calm Calm - N/A   Overcast
3:35 PM 96.8 °F 98.0 °F 62.6 °F 32% 30.06 in 10.0 mi South 4.6 mph - N/A   Scattered Clouds
3:55 PM 95.0 °F 96.0 °F 62.6 °F 34% 30.05 in 10.0 mi ESE 4.6 mph - N/A   Scattered Clouds
4:15 PM 89.6 °F 93.4 °F 68.0 °F 49% 30.05 in 10.0 mi ESE 6.9 mph - N/A Thunderstorm Scattered Clouds
4:35 PM 86.0 °F 91.8 °F 71.6 °F 62% 30.07 in 7.0 mi SSE 13.8 mph 20.7 mph N/A Rain , Thunderstorm Heavy Thunderstorms and Rain
4:55 PM 78.8 °F - 66.2 °F 65% 30.07 in 0.5 mi West 5.8 mph 17.3 mph N/A Rain , Thunderstorm Heavy Thunderstorms and Rain
5:15 PM 80.6 °F 89.3 °F 80.6 °F 100% 30.06 in 10.0 mi North 3.5 mph - N/A Rain , Thunderstorm Thunderstorms and Rain
5:35 PM 80.6 °F 89.3 °F 80.6 °F 100% 30.06 in 10.0 mi ESE 5.8 mph - N/A Rain , Thunderstorm Light Thunderstorms and Rain
5:55 PM 82.4 °F 94.0 °F 80.6 °F 94% 30.06 in 10.0 mi NNW 4.6 mph - N/A Rain , Thunderstorm Light Thunderstorms and Rain
6:15 PM 80.6 °F 89.3 °F 80.6 °F 100% 30.06 in 10.0 mi NNE 3.5 mph - N/A   Clear
6:35 PM 82.4 °F 96.1 °F 82.4 °F 100% 30.06 in 10.0 mi Calm Calm - N/A   Clear
6:55 PM 84.2 °F 103.5 °F 84.2 °F 100% 30.06 in 10.0 mi ESE 4.6 mph - N/A   Clear
7:15 PM 82.4 °F 96.1 °F 82.4 °F 100% 30.07 in 10.0 mi SE 4.6 mph - N/A   Clear
7:35 PM 82.4 °F - - N/A% 30.07 in 10.0 mi ENE 5.8 mph - N/A   Clear
7:55 PM 80.6 °F - - N/A% 30.08 in 10.0 mi SE 3.5 mph - N/A   Clear
8:15 PM 80.6 °F - - N/A% 30.08 in 10.0 mi Calm Calm - N/A   Clear
8:35 PM 80.6 °F - - N/A% 30.08 in 10.0 mi South 3.5 mph - N/A   Clear
8:55 PM 80.6 °F 89.3 °F 80.6 °F 100% 30.09 in 10.0 mi SSE 3.5 mph - N/A   Clear
9:15 PM 78.8 °F - - N/A% 30.09 in 10.0 mi SE 4.6 mph - N/A   Clear
9:35 PM 78.8 °F - - N/A% 30.09 in 10.0 mi SE 3.5 mph - N/A   Clear
10:15 PM 78.8 °F - - N/A% 30.10 in 10.0 mi South 3.5 mph - N/A   Clear
10:35 PM 78.8 °F - - N/A% 30.10 in 10.0 mi SSE 3.5 mph - N/A   Clear
10:55 PM 78.8 °F - - N/A% 30.10 in 10.0 mi South 4.6 mph - N/A   Clear
11:15 PM 78.8 °F - - N/A% 30.10 in 10.0 mi SSW 3.5 mph - N/A   Clear
11:35 PM 78.8 °F - - N/A% 30.10 in 10.0 mi South 3.5 mph - N/A   Clear
11:55 PM 78.8 °F - - N/A% 30.10 in 10.0 mi Calm Calm - N/A   Clear